Albany, LA

4:49 PM CDT on August 03, 2015 (GMT -0500)
Hungarian Settlement | | Change Station
CLOSE
Current Station
Personal Weather Station
Location: Albany, LA
Elevation: 52 ft
Nearby Weather Stations

Elev 52 ft 30.49 °N, 90.58 °W | Updated 10 minutes ago

Partly Cloudy
Partly Cloudy
98.4 °F
Feels Like 109 °F
N
2.7
Wind Variable Wind from ESE

Today
High -- | Low -- °F
--% Chance of Precip.
Yesterday
High -- | Low -- °F
Precip. -- in
6:21 AM 7:55 PM
Waning Gibbous, 84% visible
Pressure 29.91 in
Visibility 10.0 miles
Clouds Mostly Cloudy 10000 ft
Heat Index 109 °F
Dew Point 73 °F
Humidity 44%
Rainfall 0.00 in
Snow Depth Not available.
UV 3 out of 12
Pollen 3.30 out of 12
Air Quality Not available.
Flu Activity Not available.
METAR KHDC 032135Z AUTO 16006KT 10SM BKN100 35/16 A2991 RMK AO2

More Conditions Fewer Conditions

Pressure 29.91 in
Visibility 10.0 miles
Clouds Mostly Cloudy 10000 ft
Heat Index 109 °F
Dew Point 73 °F
Humidity 44%
Rainfall 0.00 in
Snow Depth Not available.
UV 3 out of 12
Pollen 3.30 out of 12
Air Quality Not available.
Flu Activity Not available.
METAR KHDC 032135Z AUTO 16006KT 10SM BKN100 35/16 A2991 RMK AO2

More Conditions Fewer Conditions

10-Day Weather Forecast

×

Almanac

Astronomy

Aug. 03, 2015 Rise Set
Actual Time
Civil Twilight
Nautical Twilight
Astronomical Twilight
Moon
Length of Visible Light
Length of Day
Tomorrow will be .
, % of the Moon is Illuminated

Today's Extremes

State Highs State Lows

Community

WunderPhotos

Upload Photos

1,843,770 photos uploaded!

WunderBlogs® & News

Nearby

Air Quality

  Air Quality AQ Index Pollutant
Not available.

Snow Depth

Station Depth Elevation

Earthquake Activity

City Distance Mag. Time & Date
Minimum magnitude displayed is 2.5.

Coastal Water Temperatures

Place Temperature

Stations

Nearby Weather Stations

Station Location Temp. Windchill Dew Point Humidity Wind Precip. Elev Updated Type